Time,TemperatureF,DewpointF,PressureIn,WindDirection,WindDirectionDegrees,WindSpeedMPH,WindSpeedGustMPH,Humidity,HourlyPrecipIn,Conditions,Clouds,dailyrainin,SoftwareType,DateUTC
2013-02-04 06:06:00,31.3,23.0,30.08,West,267,10.0,11.0,71,0.00,,,0.00,Wunderground v.1.15,2013-02-04 12:06:00,
2013-02-04 06:11:00,31.2,22.9,30.08,West,267,10.0,11.0,71,0.00,,,0.00,Wunderground v.1.15,2013-02-04 12:11:00,
2013-02-04 06:14:00,31.1,22.8,30.08,West,267,10.0,11.0,71,0.00,,,0.00,Wunderground v.1.15,2013-02-04 12:14:00,
2013-02-04 06:19:00,30.9,22.6,30.09,West,266,11.0,11.0,71,0.00,,,0.00,Wunderground v.1.15,2013-02-04 12:19:00,
2013-02-04 06:24:00,30.8,22.8,30.08,West,265,11.0,12.0,72,0.00,,,0.00,Wunderground v.1.15,2013-02-04 12:24:00,
2013-02-04 06:30:00,30.7,22.7,30.08,West,265,11.0,11.0,72,0.00,,,0.00,Wunderground v.1.15,2013-02-04 12:30:00,
2013-02-04 06:35:00,30.6,22.6,30.08,West,265,10.0,11.0,72,0.00,,,0.00,Wunderground v.1.15,2013-02-04 12:35:00,
2013-02-04 06:41:00,30.8,22.8,30.08,West,265,10.0,10.0,72,0.00,,,0.00,Wunderground v.1.15,2013-02-04 12:41:00,
2013-02-04 06:46:00,30.8,22.8,30.08,West,265,10.0,11.0,72,0.00,,,0.00,Wunderground v.1.15,2013-02-04 12:46:00,
2013-02-04 06:52:00,30.8,22.8,30.09,West,265,10.0,11.0,72,0.00,,,0.00,Wunderground v.1.15,2013-02-04 12:52:00,
2013-02-04 06:57:00,30.7,22.7,30.09,West,266,10.0,11.0,72,0.00,,,0.00,Wunderground v.1.15,2013-02-04 12:57:00,
2013-02-04 07:03:00,30.7,22.7,30.09,West,267,10.0,11.0,72,0.00,,,0.00,Wunderground v.1.15,2013-02-04 13:03:00,
2013-02-04 07:08:00,30.6,22.6,30.09,West,268,11.0,12.0,72,0.00,,,0.00,Wunderground v.1.15,2013-02-04 13:08:00,
2013-02-04 07:13:00,30.4,22.8,30.09,West,268,10.0,11.0,73,0.00,,,0.00,Wunderground v.1.15,2013-02-04 13:13:00,
2013-02-04 07:19:00,30.1,22.5,30.09,West,268,9.0,11.0,73,0.00,,,0.00,Wunderground v.1.15,2013-02-04 13:19:00,
2013-02-04 07:25:00,30.0,22.4,30.09,West,268,9.0,11.0,73,0.00,,,0.00,Wunderground v.1.15,2013-02-04 13:25:00,
2013-02-04 07:30:00,29.8,22.2,30.10,West,268,10.0,10.0,73,0.00,,,0.00,Wunderground v.1.15,2013-02-04 13:30:00,
2013-02-04 07:35:00,29.3,21.7,30.10,West,268,9.0,10.0,73,0.00,,,0.00,Wunderground v.1.15,2013-02-04 13:35:00,
2013-02-04 07:41:00,28.9,21.7,30.10,West,268,9.0,9.0,74,0.00,,,0.00,Wunderground v.1.15,2013-02-04 13:41:00,
2013-02-04 07:46:00,28.8,21.6,30.10,West,268,9.0,9.0,74,0.00,,,0.00,Wunderground v.1.15,2013-02-04 13:46:00,
2013-02-04 07:52:00,29.0,21.7,30.10,West,268,9.0,10.0,74,0.00,,,0.00,Wunderground v.1.15,2013-02-04 13:52:00,
2013-02-04 07:57:00,29.2,21.9,30.09,West,268,9.0,10.0,74,0.00,,,0.00,Wunderground v.1.15,2013-02-04 13:57:00,
2013-02-04 08:03:00,29.6,22.3,30.09,West,268,9.0,9.0,74,0.00,,,0.00,Wunderground v.1.15,2013-02-04 14:03:00,
2013-02-04 08:08:00,29.5,22.2,30.09,West,268,8.0,9.0,74,0.00,,,0.00,Wunderground v.1.15,2013-02-04 14:08:00,
2013-02-04 08:14:00,29.2,21.6,30.09,West,268,8.0,8.0,73,0.00,,,0.00,Wunderground v.1.15,2013-02-04 14:14:00,
2013-02-04 08:19:00,29.0,21.7,30.09,West,268,8.0,9.0,74,0.00,,,0.00,Wunderground v.1.15,2013-02-04 14:19:00,
2013-02-04 08:25:00,28.8,21.6,30.09,West,268,8.0,8.0,74,0.00,,,0.00,Wunderground v.1.15,2013-02-04 14:25:00,
2013-02-04 08:31:00,28.9,21.7,30.09,West,268,7.0,8.0,74,0.00,,,0.00,Wunderground v.1.15,2013-02-04 14:31:00,
2013-02-04 08:36:00,28.4,21.2,30.09,West,268,7.0,8.0,74,0.00,,,0.00,Wunderground v.1.15,2013-02-04 14:36:00,
2013-02-04 08:41:00,28.1,21.2,30.09,West,268,7.0,8.0,75,0.00,,,0.00,Wunderground v.1.15,2013-02-04 14:41:00,
2013-02-04 08:47:00,28.8,21.9,30.10,West,268,8.0,9.0,75,0.00,,,0.00,Wunderground v.1.15,2013-02-04 14:47:00,
2013-02-04 08:52:00,28.7,21.5,30.10,West,268,8.0,9.0,74,0.00,,,0.00,Wunderground v.1.15,2013-02-04 14:52:00,
2013-02-04 08:58:00,28.5,21.6,30.10,West,268,8.0,9.0,75,0.00,,,0.00,Wunderground v.1.15,2013-02-04 14:58:00,
2013-02-04 09:03:00,28.4,21.5,30.10,West,268,6.0,7.0,75,0.00,,,0.00,Wunderground v.1.15,2013-02-04 15:03:00,
2013-02-04 09:20:00,29.3,22.7,30.11,West,268,7.0,7.0,76,0.00,,,0.00,Wunderground v.1.15,2013-02-04 15:20:00,
2013-02-04 09:26:00,30.2,23.5,30.11,West,268,6.0,7.0,76,0.00,,,0.00,Wunderground v.1.15,2013-02-04 15:26:00,
2013-02-04 09:32:00,31.0,24.3,30.11,West,268,6.0,6.0,76,0.00,,,0.00,Wunderground v.1.15,2013-02-04 15:32:00,
2013-02-04 09:38:00,31.7,24.7,30.11,West,268,5.0,6.0,75,0.00,,,0.00,Wunderground v.1.15,2013-02-04 15:38:00,
2013-02-04 09:43:00,32.3,24.6,30.11,West,269,7.0,8.0,73,0.00,,,0.00,Wunderground v.1.15,2013-02-04 15:43:00,
2013-02-04 09:49:00,32.6,24.9,30.11,West,270,7.0,8.0,73,0.00,,,0.00,Wunderground v.1.15,2013-02-04 15:49:00,
2013-02-04 09:54:00,33.1,25.4,30.11,West,270,6.0,7.0,73,0.00,,,0.00,Wunderground v.1.15,2013-02-04 15:54:00,
2013-02-04 09:59:00,33.6,25.9,30.11,West,270,6.0,7.0,73,0.00,,,0.00,Wunderground v.1.15,2013-02-04 15:59:00,
2013-02-04 10:05:00,34.4,26.3,30.11,West,270,4.0,5.0,72,0.00,,,0.00,Wunderground v.1.15,2013-02-04 16:05:00,
2013-02-04 10:10:00,34.8,26.4,30.11,West,271,4.0,6.0,71,0.00,,,0.00,Wunderground v.1.15,2013-02-04 16:10:00,
2013-02-04 10:16:00,35.4,26.6,30.11,West,271,6.0,6.0,70,0.00,,,0.00,Wunderground v.1.15,2013-02-04 16:16:00,
2013-02-04 10:21:00,35.9,26.7,30.11,West,271,5.0,5.0,69,0.00,,,0.00,Wunderground v.1.15,2013-02-04 16:21:00,
2013-02-04 10:27:00,36.3,26.7,30.11,West,273,5.0,7.0,68,0.00,,,0.00,Wunderground v.1.15,2013-02-04 16:27:00,
2013-02-04 10:33:00,36.5,26.6,30.11,West,273,5.0,7.0,67,0.00,,,0.00,Wunderground v.1.15,2013-02-04 16:33:00,
2013-02-04 10:38:00,36.8,26.5,30.12,West,275,6.0,7.0,66,0.00,,,0.00,Wunderground v.1.15,2013-02-04 16:38:00,
2013-02-04 10:43:00,37.0,26.7,30.11,West,275,5.0,6.0,66,0.00,,,0.00,Wunderground v.1.15,2013-02-04 16:43:00,
2013-02-04 10:49:00,37.3,27.0,30.11,West,275,4.0,6.0,66,0.00,,,0.00,Wunderground v.1.15,2013-02-04 16:49:00,
2013-02-04 10:54:00,37.7,27.0,30.11,West,275,3.0,5.0,65,0.00,,,0.00,Wunderground v.1.15,2013-02-04 16:54:00,
2013-02-04 11:00:00,38.2,27.5,30.11,West,275,2.0,4.0,65,0.00,,,0.00,Wunderground v.1.15,2013-02-04 17:00:00,
2013-02-04 11:05:00,38.6,27.1,30.11,West,275,2.0,5.0,63,0.00,,,0.00,Wunderground v.1.15,2013-02-04 17:05:00,
2013-02-04 11:10:00,38.7,27.2,30.11,West,275,3.0,3.0,63,0.00,,,0.00,Wunderground v.1.15,2013-02-04 17:10:00,
2013-02-04 11:15:00,39.0,27.1,30.11,West,275,3.0,5.0,62,0.00,,,0.00,Wunderground v.1.15,2013-02-04 17:15:00,
2013-02-04 11:21:00,39.5,27.5,30.11,West,275,2.0,2.0,62,0.00,,,0.00,Wunderground v.1.15,2013-02-04 17:21:00,
2013-02-04 11:26:00,40.5,28.1,30.10,West,275,1.0,2.0,61,0.00,,,0.00,Wunderground v.1.15,2013-02-04 17:26:00,
2013-02-04 11:32:00,41.5,28.2,30.10,West,275,0.0,0.0,59,0.00,,,0.00,Wunderground v.1.15,2013-02-04 17:32:00,
2013-02-04 11:37:00,42.2,28.0,30.10,West,276,1.0,1.0,57,0.00,,,0.00,Wunderground v.1.15,2013-02-04 17:37:00,
2013-02-04 11:43:00,42.4,27.8,30.11,West,275,1.0,1.0,56,0.00,,,0.00,Wunderground v.1.15,2013-02-04 17:43:00,
2013-02-04 11:48:00,42.6,28.0,30.10,West,275,1.0,1.0,56,0.00,,,0.00,Wunderground v.1.15,2013-02-04 17:48:00,
2013-02-04 11:54:00,42.8,28.2,30.11,West,275,0.0,1.0,56,0.00,,,0.00,Wunderground v.1.15,2013-02-04 17:54:00,
2013-02-04 11:59:00,42.9,28.3,30.11,WSW,238,2.0,6.0,56,0.00,,,0.00,Wunderground v.1.15,2013-02-04 17:59:00,
2013-02-04 12:05:00,41.8,27.7,30.10,SW,216,5.0,10.0,57,0.00,,,0.00,Wunderground v.1.15,2013-02-04 18:05:00,
2013-02-04 12:11:00,41.5,27.8,30.10,SW,216,5.0,5.0,58,0.00,,,0.00,Wunderground v.1.15,2013-02-04 18:11:00,
2013-02-04 12:16:00,42.1,27.9,30.10,SW,216,3.0,5.0,57,0.00,,,0.00,Wunderground v.1.15,2013-02-04 18:16:00,
2013-02-04 12:22:00,43.0,28.4,30.09,SW,216,1.0,2.0,56,0.00,,,0.00,Wunderground v.1.15,2013-02-04 18:22:00,
2013-02-04 12:28:00,43.1,28.0,30.08,SW,216,1.0,3.0,55,0.00,,,0.00,Wunderground v.1.15,2013-02-04 18:28:00,
2013-02-04 12:33:00,43.1,27.6,30.08,SW,216,1.0,1.0,54,0.00,,,0.00,Wunderground v.1.15,2013-02-04 18:33:00,
2013-02-04 12:39:00,43.0,27.5,30.08,SW,216,2.0,4.0,54,0.00,,,0.00,Wunderground v.1.15,2013-02-04 18:39:00,
2013-02-04 12:44:00,43.3,27.8,30.07,SW,216,2.0,3.0,54,0.00,,,0.00,Wunderground v.1.15,2013-02-04 18:44:00,
2013-02-04 12:50:00,44.1,28.0,30.07,SW,216,1.0,1.0,53,0.00,,,0.00,Wunderground v.1.15,2013-02-04 18:50:00,
2013-02-04 12:55:00,44.6,28.0,30.06,SW,216,1.0,3.0,52,0.00,,,0.00,Wunderground v.1.15,2013-02-04 18:55:00,
2013-02-04 13:01:00,45.0,28.4,30.06,South,189,2.0,3.0,52,0.00,,,0.00,Wunderground v.1.15,2013-02-04 19:01:00,
2013-02-04 13:06:00,45.2,28.1,30.05,South,189,3.0,4.0,51,0.00,,,0.00,Wunderground v.1.15,2013-02-04 19:06:00,
2013-02-04 13:11:00,45.5,28.4,30.05,South,189,2.0,5.0,51,0.00,,,0.00,Wunderground v.1.15,2013-02-04 19:11:00,
2013-02-04 13:16:00,45.7,28.1,30.05,ESE,105,4.0,9.0,50,0.00,,,0.00,Wunderground v.1.15,2013-02-04 19:16:00,
2013-02-04 13:22:00,46.1,28.5,30.04,ESE,103,5.0,7.0,50,0.00,,,0.00,Wunderground v.1.15,2013-02-04 19:22:00,
2013-02-04 13:27:00,46.3,28.2,30.04,East,101,5.0,8.0,49,0.00,,,0.00,Wunderground v.1.15,2013-02-04 19:27:00,
2013-02-04 13:33:00,46.7,28.5,30.03,East,100,6.0,7.0,49,0.00,,,0.00,Wunderground v.1.15,2013-02-04 19:33:00,
2013-02-04 13:38:00,47.0,28.8,30.02,East,88,6.0,8.0,49,0.00,,,0.00,Wunderground v.1.15,2013-02-04 19:38:00,
2013-02-04 13:43:00,47.8,29.0,30.02,East,88,6.0,7.0,48,0.00,,,0.00,Wunderground v.1.15,2013-02-04 19:43:00,
2013-02-04 13:49:00,48.2,28.4,30.02,ESE,119,6.0,11.0,46,0.00,,,0.00,Wunderground v.1.15,2013-02-04 19:49:00,
2013-02-04 13:55:00,48.2,27.8,30.01,ESE,113,7.0,9.0,45,0.00,,,0.00,Wunderground v.1.15,2013-02-04 19:55:00,
2013-02-04 14:00:00,48.6,27.6,30.01,South,178,7.0,7.0,44,0.00,,,0.00,Wunderground v.1.15,2013-02-04 20:00:00,
2013-02-04 14:05:00,49.0,26.3,30.01,SSW,207,8.0,12.0,41,0.00,,,0.00,Wunderground v.1.15,2013-02-04 20:05:00,
2013-02-04 14:10:00,49.2,27.1,30.01,South,173,7.0,7.0,42,0.00,,,0.00,Wunderground v.1.15,2013-02-04 20:10:00,
2013-02-04 14:16:00,49.5,26.1,30.01,South,175,7.0,11.0,40,0.00,,,0.00,Wunderground v.1.15,2013-02-04 20:16:00,
2013-02-04 14:22:00,49.5,26.1,30.01,SSW,200,8.0,13.0,40,0.00,,,0.00,Wunderground v.1.15,2013-02-04 20:22:00,
2013-02-04 14:28:00,49.4,26.1,30.00,South,189,10.0,13.0,40,0.00,,,0.00,Wunderground v.1.15,2013-02-04 20:28:00,
2013-02-04 14:34:00,49.6,25.6,30.00,SSW,207,11.0,12.0,39,0.00,,,0.00,Wunderground v.1.15,2013-02-04 20:34:00,
2013-02-04 14:39:00,49.8,26.4,30.00,South,189,10.0,12.0,40,0.00,,,0.00,Wunderground v.1.15,2013-02-04 20:39:00,
2013-02-04 14:45:00,49.9,25.9,30.00,SW,221,10.0,13.0,39,0.00,,,0.00,Wunderground v.1.15,2013-02-04 20:45:00,
2013-02-04 14:50:00,50.0,26.0,30.00,SSW,193,11.0,11.0,39,0.00,,,0.00,Wunderground v.1.15,2013-02-04 20:50:00,
2013-02-04 14:56:00,50.1,26.1,29.99,SSW,198,12.0,16.0,39,0.00,,,0.00,Wunderground v.1.15,2013-02-04 20:56:00,
2013-02-04 15:01:00,50.2,26.2,29.99,South,183,12.0,12.0,39,0.00,,,0.00,Wunderground v.1.15,2013-02-04 21:01:00,
2013-02-04 15:06:00,50.5,25.8,29.99,SW,215,11.0,16.0,38,0.00,,,0.00,Wunderground v.1.15,2013-02-04 21:06:00,
2013-02-04 15:11:00,50.7,26.6,29.99,SSW,205,11.0,11.0,39,0.00,,,0.00,Wunderground v.1.15,2013-02-04 21:11:00,